ANACAPA ISLAND CA US current weather conditions

sailwx.info

Wind from 298 at 14 knots gusting 19

Air temperature 21.7° C
Dewpoint 17.0° C

Last reported at 2014-Jul-23 14:23 UTC.
Time now 2014-Jul-23 15:29 UTC

Location: N 34°01' W 119°22'.
View on Google Maps.

See reports from other nearby stations

  
Tides and Currents Weather Stations Pressure Air Temp Water Temp Dewpoint Dewpoint Depression Visibility Wind Speed Wind Dir Waves Ship Positions
date/time (UTC)wind fromknots sea level pressurealtimeterstation pressurevisibilityair tempwater tempwave heightnotes
2014-Jul-23 14:23 298 14 gusting 19 21.7
2014-Jul-23 13:23 276 10 gusting 30 23.3
2014-Jul-23 12:23 305 22 gusting 35 22.2
2014-Jul-23 11:23 292 23 gusting 37 21.7
2014-Jul-23 10:23 298 28 gusting 36 21.1
2014-Jul-23 09:23 006 24 gusting 34 21.7
2014-Jul-23 08:23 297 26 gusting 35 22.8
2014-Jul-23 07:23 304 23 gusting 30 21.7
2014-Jul-23 06:23 287 23 gusting 36 23.3
2014-Jul-23 05:23 285 20 gusting 35 22.2
2014-Jul-23 04:23 282 19 gusting 38 22.2
2014-Jul-23 03:23 196 26 gusting 38 23.3
2014-Jul-23 02:23 295 22 gusting 29 23.3
2014-Jul-23 01:23 295 20 gusting 33 23.9
2014-Jul-23 00:23 290 20 gusting 32 23.3
2014-Jul-22 23:23 293 21 gusting 31 24.4
2014-Jul-22 22:23 296 22 gusting 29 24.4
2014-Jul-22 21:23 294 20 gusting 32 24.4
2014-Jul-22 20:23 291 19 gusting 26 23.9
2014-Jul-22 19:23 285 10 gusting 24 26.1
2014-Jul-22 18:23 295 19 gusting 23 23.3
2014-Jul-22 17:23 301 18 gusting 24 23.9
2014-Jul-22 16:23 297 12 gusting 19 24.4
2014-Jul-22 15:23 294 14 gusting 23 23.9
2014-Jul-22 14:23 305 17 gusting 20 23.3
2014-Jul-22 13:23 299 16 gusting 20 22.8
2014-Jul-22 12:23 312 6 gusting 12 22.8
2014-Jul-22 11:23 320 11 gusting 13 23.3
2014-Jul-22 10:23 298 8 gusting 24 22.8
2014-Jul-22 09:23 295 19 gusting 27 22.8
2014-Jul-22 08:23 303 19 gusting 26 22.8
2014-Jul-22 07:23 304 16 gusting 21 22.8
2014-Jul-22 06:23 291 14 gusting 28 22.8
2014-Jul-22 05:23 304 20 gusting 29 22.2
2014-Jul-22 04:23 305 21 gusting 29 22.8
2014-Jul-22 03:23 305 19 gusting 26 22.8
2014-Jul-22 02:23 300 17 gusting 25 22.8
2014-Jul-22 01:23 305 18 gusting 23 22.8
2014-Jul-22 00:23 292 12 gusting 19 22.8
2014-Jul-21 23:23 285 9 gusting 18 22.8
2014-Jul-21 22:23 291 12 gusting 18 22.8
2014-Jul-21 21:23 298 13 gusting 18 23.3
2014-Jul-21 20:23 285 9 gusting 15 23.3
2014-Jul-21 19:23 298 6 gusting 13 24.4
2014-Jul-21 18:23 324 6 gusting 9 23.3
2014-Jul-21 17:23 345 7 gusting 8 24.4
2014-Jul-21 16:23 358 1 gusting 6 26.1
2014-Jul-21 15:23 311 5 gusting 12 22.8